GW2010 Weather Reports


time (UTC)temp
F
wind
direction
speed
knots
gust
knots
rain 1hr
in
rain 24hr
in
rain mn
in
humidity
%
barometer
mb
20260505124540 64 327 2.6 13.0 0.00 0.00 0.00 65 1017.1
20260505123048 62 269 3.5 11.3 0.00 0.00 0.00 69 1017.0
20260505121533 61 317 4.3 8.7 0.00 0.00 0.00 70 1017.0
20260505120052 60 19 2.6 7.0 0.00 0.00 0.00 71 1016.8
20260505114543 59 297 1.7 4.3 0.00 0.00 0.00 71 1016.7
20260505113040 58 290 1.7 6.1 0.00 0.00 0.00 72 1016.6
20260505111536 59 288 1.7 5.2 0.00 0.00 0.00 74 1016.5
20260505101540 56 307 1.7 4.3 0.00 0.00 0.00 74 1015.7
20260505100038 56 302 1.7 4.3 0.00 0.00 0.00 74 1015.8
20260505094534 56 283 2.6 6.1 0.00 0.00 0.00 73 1015.5
20260505093036 57 311 2.6 6.1 0.00 0.00 0.00 73 1015.5
20260505091551 57 292 2.6 5.2 0.00 0.00 0.00 73 1015.3
20260505090041 57 275 1.7 5.2 0.00 0.00 0.00 72 1015.3
20260505084555 57 304 2.6 5.2 0.00 0.00 0.00 72 1015.2
20260505083055 58 299 2.6 6.1 0.00 0.00 0.00 71 1015.1
20260505081551 58 317 2.6 6.1 0.00 0.00 0.00 71 1015.1
20260505080055 58 0 1.7 4.3 0.00 0.00 0.00 71 1015.0
20260505074541 59 296 1.7 5.2 0.00 0.00 0.00 71 1014.9
20260505073050 59 316 1.7 6.1 0.00 0.00 0.00 70 1014.8
20260505071545 59 315 1.7 6.1 0.00 0.00 0.00 70 1014.7
20260505070129 60 288 0.9 6.1 0.00 0.00 0.00 69 1014.7
20260505064536 60 303 1.7 6.1 0.00 0.00 0.00 69 1014.7
20260505063049 61 310 2.6 7.0 0.00 0.00 0.00 68 1014.6
20260505061539 61 284 4.3 8.7 0.00 0.00 0.00 68 1014.7
20260505060055 61 203 3.5 7.0 0.00 0.00 0.00 68 1014.8
20260505054537 61 281 2.6 6.1 0.00 0.00 0.00 67 1014.7
20260505053044 62 318 3.5 7.8 0.00 0.00 0.00 67 1015.0
20260505051543 62 275 2.6 7.8 0.00 0.00 0.00 67 1015.1
20260505041545 64 281 6.1 13.0 0.00 0.00 0.00 64 1015.0
20260505040048 64 295 6.1 13.0 0.00 0.00 0.00 64 1015.1
20260505034539 65 273 5.2 11.3 0.00 0.00 0.00 63 1015.1
20260505033037 65 298 6.1 10.4 0.00 0.00 0.00 62 1015.0
20260505031536 66 302 5.2 13.0 0.00 0.00 0.00 62 1015.1
20260505030044 66 290 7.8 14.8 0.00 0.00 0.00 61 1015.1
20260505024548 67 295 6.1 11.3 0.00 0.00 0.00 61 1015.0
20260505023041 67 272 5.2 14.8 0.00 0.00 0.00 60 1015.0
20260505021537 68 302 7.0 13.0 0.00 0.00 0.00 59 1014.8
20260505020040 68 282 9.6 15.6 0.00 0.00 0.00 56 1014.7
20260505014602 69 273 4.3 9.6 0.00 0.00 0.00 47 1014.5
20260505013048 70 273 4.3 8.7 0.00 0.00 0.00 45 1014.3
20260505011543 70 304 2.6 8.7 0.00 0.00 0.00 45 1014.1
20260505010052 71 263 4.3 8.7 0.00 0.00 0.00 44 1013.9
20260505004546 71 292 2.6 7.8 0.00 0.00 0.00 43 1013.6
20260505003054 72 285 2.6 7.8 0.00 0.00 0.00 42 1013.4
20260505001542 73 301 2.6 7.8 0.00 0.00 0.00 41 1013.4
20260505000040 74 311 3.5 6.1 0.00 0.00 0.00 40 1013.2
20260504234538 75 283 4.3 11.3 0.00 0.00 0.00 38 1013.2
20260504233037 76 237 4.3 11.3 0.00 0.00 0.00 37 1013.0
20260504231533 77 314 3.5 7.8 0.00 0.00 0.00 34 1012.8
20260504230035 78 296 2.6 11.3 0.00 0.00 0.00 32 1012.8
20260504224541 78 259 3.5 11.3 0.00 0.00 0.00 31 1012.9
20260504223055 78 279 3.5 9.6 0.00 0.00 0.00 31 1012.9
20260504221534 78 285 6.1 14.8 0.00 0.00 0.00 30 1012.9
20260504220036 79 313 5.2 11.3 0.00 0.00 0.00 30 1012.9
20260504214542 78 275 5.2 11.3 0.00 0.00 0.00 32 1012.9
20260504213043 79 276 7.0 12.2 0.00 0.00 0.00 31 1012.9
20260504211604 79 286 3.5 13.0 0.00 0.00 0.00 32 1013.1
20260504210043 78 298 5.2 13.9 0.00 0.00 0.00 33 1013.0
20260504204535 78 320 6.1 13.9 0.00 0.00 0.00 32 1013.2
20260504203033 78 296 7.8 13.9 0.00 0.00 0.00 33 1013.3
20260504201542 78 278 3.5 9.6 0.00 0.00 0.00 34 1013.4
20260504200040 77 271 7.0 13.0 0.00 0.00 0.00 34 1013.5
20260504194542 78 260 1.7 11.3 0.00 0.00 0.00 32 1013.6
20260504193035 78 273 3.5 16.5 0.00 0.00 0.00 31 1013.8
20260504191558 77 274 4.3 13.0 0.00 0.00 0.00 31 1013.8
20260504190038 77 302 4.3 9.6 0.00 0.00 0.00 33 1014.0
20260504184558 77 115 5.2 11.3 0.00 0.00 0.00 34 1014.3
20260504183042 76 32 1.7 11.3 0.00 0.00 0.00 35 1014.3
20260504181542 75 30 3.5 11.3 0.00 0.00 0.00 35 1014.4
20260504180035 75 30 2.6 11.3 0.00 0.00 0.00 37 1014.7
20260504174544 75 14 4.3 11.3 0.00 0.00 0.00 35 1014.8
20260504173037 75 236 2.6 14.8 0.00 0.00 0.00 37 1014.9
20260504171542 74 329 4.3 12.2 0.00 0.00 0.00 45 1015.4